Regional Weather Roundup
Issued by NWS

Home | Current Version | Previous Version | Text Only | Print | Product List | Glossary On
Versions: 1 2 3 4 5 6 7 8 9 10 11 12 13 14 15 16 17 18 19 20 21 22 23 24 25 26 27 28 29 30 31 32 33 34 35 36 37 38 39 40 41 42 43 44 45 46 47 48 49 50
000
ASUS43 KBIS 311420
RWRND

NORTH DAKOTA REGIONAL WEATHER ROUNDUP
NATIONAL WEATHER SERVICE BISMARCK ND
900 AM CDT FRI OCT 31 2014

NOTE: "FAIR" INDICATES FEW OR NO CLOUDS BELOW 12,000 FEET WITH NO
SIGNIFICANT WEATHER AND/OR OBSTRUCTIONS TO VISIBILITY.


NDZ001>003-009>011-017-311500-
NORTHWEST NORTH DAKOTA

CITY           SKY/WX    TMP DP  RH WIND       PRES   REMARKS
WILLISTON      CLOUDY    30  25  81 S12       30.28F
MINOT          CLEAR     21  16  81 SE13      30.44F WCI   9
MINOT AFB      CLEAR     21  18  91 SE16      30.44F WCI   7
$$

NDZ018>021-031>035-040>046-311500-
SOUTHWEST NORTH DAKOTA

CITY           SKY/WX    TMP DP  RH WIND       PRES   REMARKS
BISMARCK       PTCLDY    17  15  92 SE7       30.53S WCI   8
DICKINSON      CLOUDY    28  25  88 S24       30.31F WCI  14
GARRISON         N/A     25  22  88 SE10G22   30.44F WCI  15
HETTINGER ARPT CLOUDY    26  23  88 SE17G28   30.37F WCI  13
$$

NDZ004>008-012>016-024-026-027-054-311500-
NORTHEAST NORTH DAKOTA

CITY           SKY/WX    TMP DP  RH WIND       PRES   REMARKS
GRAND FORKS    PTCLDY    15  12  88 CALM      30.62S
GRND FRKS AFB  PTCLDY    14  12  91 CALM      30.62S
DEVILS LAKE    PTCLDY    25  16  68 S12       30.52S WCI  14
$$

NDZ022-023-025-028>030-036>039-047>053-311500-
SOUTHEAST NORTH DAKOTA

CITY           SKY/WX    TMP DP  RH WIND       PRES   REMARKS
FARGO          FAIR      17  12  80 W5        30.63R WCI  10
JAMESTOWN      PTCLDY    14  12  92 E7        30.56F WCI   4
$$




USA.gov is the U.S. government's official web portal to all federal, state and local government web resources and services.